Content
SEND FEEDBACK

Daily
Averages
Monthly
Summary
United States of America

ST. LOUIS, MISSOURI


Home > North America > United States > Missouri
Elevation: 163 meters     Latitude: 38 45N     Longitude: 090 22W

WEATHER
 
SELECT A DAY
Number of Records: 196,674;   Date Range: 1/1/95 - 9/21/14
 
SHARE

PRINT THIS DATA

[ ← Previous Day ]
WEATHER ALMANAC - APRIL 1, 2013
[ Next Day → ]
[ °C ]   °F
Weather ElementAverageHighLow
Temperature42.3 °F50 °F (2:54 pm)32 °F (11:54 pm)
Dewpoint23.1 °F30.9 °F (1:54 am)15.1 °F (5:54 pm)
Humidity48.5 %75 % (10:54 pm)27 % (5:54 pm)
Barometer30.17 in30.27 in (11:54 pm)30.00 in (1:54 am)
Wind Speed7.9 mph15 mph (2:54 pm)
Wind Gust18.4 mph (2:54 pm)
Weather ElementAverage
Visibility10 mi
Wind DirectionSW (225.7 °)

Weather ElementTotal
Precipitation---
Heating Degree Days24 (Base 65)
Averaged from 23 records on April 1, 2013
WEATHER CONDITIONS BREAKOUT
WIND DIRECTION BREAKOUT
WEATHER BY HOUR - APRIL 1, 2013
[ °C ]   °F
Local TimeTemperatureDewpointHumidityBarometerVisibilityWind DirectionWind SpeedGust SpeedPrecipitationEventsConditions
1:54 AM45.0 °F30.9 °F58 %30.00 in10.0 miNNE (20°)6.9 mphPartly Cloudy
2:54 AM44.1 °F28.0 °F53 %30.02 in10.0 miNorth (10°)11.5 mphScattered Clouds
3:54 AM43.0 °F28.0 °F56 %30.04 in10.0 miNorth (10°)5.8 mphOvercast
4:54 AM41.0 °F28.0 °F60 %30.06 in10.0 miNE (40°)9.2 mphOvercast
5:54 AM41.0 °F23.0 °F49 %30.11 in10.0 miNorth (360°)9.2 mphOvercast
6:54 AM39.9 °F24.1 °F53 %30.14 in10.0 miNorth (360°)5.8 mphOvercast
7:54 AM39.0 °F24.1 °F55 %30.17 in10.0 miNNW (340°)11.5 mphOvercast
8:54 AM37.9 °F26.1 °F62 %30.19 in10.0 miNorth (350°)8.1 mphOvercast
9:54 AM39.9 °F24.1 °F53 %30.21 in10.0 miNorth (360°)11.5 mphMostly Cloudy
10:54 AM42.1 °F25.0 °F51 %30.22 in10.0 miNNE (20°)3.5 mphScattered Clouds
11:54 AM44.1 °F24.1 °F45 %30.22 in10.0 miNW (320°)9.2 mphClear
12:54 PM46.9 °F19.0 °F33 %30.21 in10.0 miNorth (360°)10.4 mph16.1 mphScattered Clouds
1:54 PM48.0 °F21.0 °F34 %30.21 in10.0 miNW (310°)9.2 mphScattered Clouds
2:54 PM50.0 °F19.9 °F31 %30.20 in10.0 miNNW (340°)15.0 mph18.4 mphPartly Cloudy
3:54 PM48.9 °F18.0 °F29 %30.20 in10.0 miNNW (330°)10.4 mphPartly Cloudy
4:54 PM48.9 °F18.0 °F29 %30.20 in10.0 miNNW (330°)13.8 mphPartly Cloudy
5:54 PM48.0 °F15.1 °F27 %30.20 in10.0 miNorth (360°)10.4 mphClear
6:54 PM46.0 °F19.0 °F34 %30.20 in10.0 miNorth (350°)8.1 mphScattered Clouds
7:54 PM41.0 °F21.0 °F45 %30.21 in10.0 miNW (310°)6.9 mphScattered Clouds
8:54 PM39.9 °F21.0 °F47 %30.22 in10.0 miNW (310°)4.6 mphClear
9:54 PM34.0 °F24.1 °F67 %30.23 in10.0 miCalmClear
10:54 PM33.1 °F26.1 °F75 %30.25 in10.0 miCalmClear
11:54 PM32.0 °F23.0 °F69 %30.27 in10.0 miCalmClear
Hourly data recorded from KSUS, located miles away from St. Louis, Missouri







STORIES FROM OUR PARTNERS